Location: Newark
(5.0949°S, 42.8042°W)
Time: 04:37:19
(UTC+00:00)

Hubble Space Telescope - Pass Details

Date: 28 September 2019
Orbit: 536 x 540 km, 28.5° (Epoch: 20 October)

Event Time Altitude Azimuth Distance (km) Brightness Sun altitude
Exits shadow 08:05:23 - 304° (NW) 1,959 3.1 -8.9°
Reaches altitude 10° 08:05:51 10° 305° (NW) 1,774 2.9 -8.8°
Maximum altitude 08:09:57 74° 31° (NNE) 555 0.9 -7.8°
Drops below altitude 10° 08:14:04 10° 115° (ESE) 1,783 4.7 -6.8°
Sets 08:16:20 0° 117° (ESE) 2,676 5.7 -6.2°
